Time,TemperatureF,DewpointF,PressureIn,WindDirection,WindDirectionDegrees,WindSpeedMPH,WindSpeedGustMPH,Humidity,HourlyPrecipIn,Conditions,Clouds,dailyrainin,SoftwareType,DateUTC
2013-10-14 00:03:00,36.9,34.0,30.23,NE,41,1.0,5.0,89,0.00,,,0.00,weatherlink.com 1.10,2013-10-14 06:03:00,
2013-10-14 00:18:00,36.9,34.0,30.23,NNE,30,0.0,3.0,88,0.00,,,0.00,weatherlink.com 1.10,2013-10-14 06:18:00,
2013-10-14 00:33:00,37.0,34.0,30.23,NNE,30,0.0,3.0,89,0.00,,,0.00,weatherlink.com 1.10,2013-10-14 06:33:00,
2013-10-14 00:48:00,36.9,34.0,30.23,NNE,28,2.0,4.0,88,0.00,,,0.00,weatherlink.com 1.10,2013-10-14 06:48:00,
2013-10-14 01:03:00,36.9,34.0,30.23,North,359,3.0,6.0,89,0.00,,,0.00,weatherlink.com 1.10,2013-10-14 07:03:00,
2013-10-14 01:19:00,36.8,34.0,30.24,NNE,17,2.0,4.0,89,0.00,,,0.00,weatherlink.com 1.10,2013-10-14 07:19:00,
2013-10-14 01:34:00,36.8,34.0,30.24,North,354,2.0,5.0,89,0.00,,,0.00,weatherlink.com 1.10,2013-10-14 07:34:00,
2013-10-14 01:49:00,36.6,34.0,30.24,North,359,0.0,4.0,89,0.00,,,0.00,weatherlink.com 1.10,2013-10-14 07:49:00,
2013-10-14 02:04:00,36.5,34.0,30.24,North,359,0.0,3.0,89,0.02,,,0.02,weatherlink.com 1.10,2013-10-14 08:04:00,
2013-10-14 02:19:00,36.0,33.0,30.24,North,359,1.0,3.0,89,0.02,,,0.02,weatherlink.com 1.10,2013-10-14 08:19:00,
2013-10-14 02:34:00,35.6,33.0,30.23,North,359,0.0,0.0,89,0.03,,,0.03,weatherlink.com 1.10,2013-10-14 08:34:00,
2013-10-14 02:49:00,35.3,32.0,30.23,North,354,0.0,2.0,89,0.04,,,0.04,weatherlink.com 1.10,2013-10-14 08:49:00,
2013-10-14 03:04:00,35.0,32.0,30.23,North,354,0.0,3.0,89,0.03,,,0.05,weatherlink.com 1.10,2013-10-14 09:04:00,
2013-10-14 03:19:00,34.7,32.0,30.23,SW,221,3.0,4.0,90,0.03,,,0.06,weatherlink.com 1.10,2013-10-14 09:19:00,
2013-10-14 03:34:00,34.3,32.0,30.23,SW,222,4.0,5.0,91,0.03,,,0.07,weatherlink.com 1.10,2013-10-14 09:34:00,
2013-10-14 03:49:00,34.3,32.0,30.23,SW,223,0.0,2.0,91,0.03,,,0.07,weatherlink.com 1.10,2013-10-14 09:49:00,
2013-10-14 04:04:00,34.1,32.0,30.23,SW,223,2.0,3.0,91,0.03,,,0.08,weatherlink.com 1.10,2013-10-14 10:04:00,
2013-10-14 04:19:00,34.3,32.0,30.24,SW,223,2.0,4.0,91,0.02,,,0.08,weatherlink.com 1.10,2013-10-14 10:19:00,
2013-10-14 04:34:00,34.6,32.0,30.24,SSW,197,4.0,4.0,91,0.02,,,0.09,weatherlink.com 1.10,2013-10-14 10:34:00,
2013-10-14 04:49:00,34.7,32.0,30.24,SSW,210,3.0,6.0,91,0.02,,,0.09,weatherlink.com 1.10,2013-10-14 10:49:00,
2013-10-14 05:04:00,35.2,33.0,30.24,SSW,201,0.0,6.0,91,0.01,,,0.09,weatherlink.com 1.10,2013-10-14 11:04:00,
2013-10-14 05:19:00,35.5,33.0,30.25,ESE,108,0.0,3.0,90,0.01,,,0.09,weatherlink.com 1.10,2013-10-14 11:19:00,
2013-10-14 05:34:00,35.6,33.0,30.25,ESE,108,1.0,4.0,89,0.00,,,0.09,weatherlink.com 1.10,2013-10-14 11:34:00,
2013-10-14 05:49:00,35.5,33.0,30.25,WSW,249,0.0,3.0,89,0.00,,,0.09,weatherlink.com 1.10,2013-10-14 11:49:00,
2013-10-14 06:04:00,35.6,32.0,30.25,West,270,7.0,7.0,87,0.01,,,0.10,weatherlink.com 1.10,2013-10-14 12:04:00,
2013-10-14 06:19:00,35.6,32.0,30.25,WNW,301,6.0,13.0,86,0.01,,,0.10,weatherlink.com 1.10,2013-10-14 12:19:00,
2013-10-14 06:34:00,35.5,32.0,30.25,WNW,299,5.0,11.0,86,0.01,,,0.10,weatherlink.com 1.10,2013-10-14 12:34:00,
2013-10-14 06:49:00,35.5,31.0,30.26,WNW,283,3.0,7.0,85,0.00,,,0.10,weatherlink.com 1.10,2013-10-14 12:49:00,
2013-10-14 07:04:00,35.5,31.0,30.26,WSW,256,6.0,11.0,83,0.00,,,0.10,weatherlink.com 1.10,2013-10-14 13:04:00,
2013-10-14 07:19:00,35.0,31.0,30.27,West,267,8.0,10.0,84,0.00,,,0.10,weatherlink.com 1.10,2013-10-14 13:19:00,
2013-10-14 07:34:00,34.3,30.0,30.27,WNW,301,6.0,15.0,85,0.01,,,0.11,weatherlink.com 1.10,2013-10-14 13:34:00,
2013-10-14 07:49:00,34.4,30.0,30.27,WNW,291,5.0,16.0,85,0.01,,,0.11,weatherlink.com 1.10,2013-10-14 13:49:00,
2013-10-14 08:04:00,34.4,31.0,30.28,West,259,7.0,12.0,86,0.01,,,0.11,weatherlink.com 1.10,2013-10-14 14:04:00,
2013-10-14 08:19:00,34.7,31.0,30.28,NW,322,4.0,12.0,85,0.01,,,0.11,weatherlink.com 1.10,2013-10-14 14:19:00,
2013-10-14 08:34:00,35.9,29.0,30.29,West,278,3.0,15.0,77,0.00,,,0.11,weatherlink.com 1.10,2013-10-14 14:34:00,
2013-10-14 08:49:00,36.5,29.0,30.29,West,262,5.0,9.0,74,0.00,,,0.11,weatherlink.com 1.10,2013-10-14 14:49:00,
2013-10-14 09:04:00,36.8,29.0,30.30,West,260,4.0,11.0,74,0.00,,,0.11,weatherlink.com 1.10,2013-10-14 15:04:00,
2013-10-14 09:19:00,37.3,29.0,30.30,NW,319,1.0,8.0,71,0.00,,,0.11,weatherlink.com 1.10,2013-10-14 15:19:00,
2013-10-14 09:34:00,37.8,27.0,30.31,NW,305,3.0,7.0,66,0.00,,,0.11,weatherlink.com 1.10,2013-10-14 15:34:00,
2013-10-14 09:49:00,38.2,28.0,30.32,North,4,3.0,4.0,68,0.00,,,0.11,weatherlink.com 1.10,2013-10-14 15:49:00,
2013-10-14 10:04:00,37.8,27.0,30.32,North,349,2.0,13.0,65,0.00,,,0.11,weatherlink.com 1.10,2013-10-14 16:04:00,
2013-10-14 10:20:00,38.2,27.0,30.33,ENE,76,5.0,12.0,64,0.00,,,0.11,weatherlink.com 1.10,2013-10-14 16:20:00,
2013-10-14 10:35:00,38.2,28.0,30.33,NNE,23,8.0,16.0,67,0.00,,,0.11,weatherlink.com 1.10,2013-10-14 16:35:00,
2013-10-14 10:50:00,37.2,29.0,30.34,North,354,4.0,12.0,72,0.00,,,0.11,weatherlink.com 1.10,2013-10-14 16:50:00,
2013-10-14 11:05:00,37.2,29.0,30.34,NE,56,4.0,18.0,72,0.00,,,0.11,weatherlink.com 1.10,2013-10-14 17:05:00,
2013-10-14 11:20:00,36.6,30.0,30.35,ENE,58,8.0,22.0,78,0.00,,,0.11,weatherlink.com 1.10,2013-10-14 17:20:00,
2013-10-14 11:35:00,36.5,29.0,30.35,NE,48,11.0,18.0,75,0.00,,,0.11,weatherlink.com 1.10,2013-10-14 17:35:00,
2013-10-14 11:50:00,36.3,30.0,30.35,East,83,11.0,17.0,77,0.00,,,0.11,weatherlink.com 1.10,2013-10-14 17:50:00,
2013-10-14 12:05:00,36.8,29.0,30.36,ESE,109,8.0,12.0,74,0.00,,,0.11,weatherlink.com 1.10,2013-10-14 18:05:00,
2013-10-14 12:20:00,37.3,29.0,30.36,East,87,7.0,13.0,71,0.00,,,0.11,weatherlink.com 1.10,2013-10-14 18:20:00,
2013-10-14 12:35:00,37.3,30.0,30.36,East,91,6.0,14.0,74,0.00,,,0.11,weatherlink.com 1.10,2013-10-14 18:35:00,
2013-10-14 12:50:00,37.2,29.0,30.37,East,83,3.0,10.0,72,0.00,,,0.11,weatherlink.com 1.10,2013-10-14 18:50:00,
2013-10-14 13:05:00,37.0,29.0,30.37,ENE,57,3.0,10.0,72,0.00,,,0.11,weatherlink.com 1.10,2013-10-14 19:05:00,
2013-10-14 13:20:00,37.0,29.0,30.37,ESE,106,7.0,8.0,73,0.00,,,0.11,weatherlink.com 1.10,2013-10-14 19:20:00,
2013-10-14 13:35:00,37.2,30.0,30.37,East,94,2.0,3.0,74,0.00,,,0.11,weatherlink.com 1.10,2013-10-14 19:35:00,
2013-10-14 13:50:00,37.8,30.0,30.37,NNW,341,0.0,3.0,74,0.00,,,0.11,weatherlink.com 1.10,2013-10-14 19:50:00,
2013-10-14 14:05:00,36.6,31.0,30.37,SW,231,8.0,10.0,79,0.00,,,0.11,weatherlink.com 1.10,2013-10-14 20:05:00,
2013-10-14 14:20:00,35.6,31.0,30.38,SSW,212,5.0,8.0,82,0.00,,,0.11,weatherlink.com 1.10,2013-10-14 20:20:00,
2013-10-14 14:35:00,35.6,30.0,30.38,SSW,206,3.0,6.0,81,0.00,,,0.11,weatherlink.com 1.10,2013-10-14 20:35:00,
2013-10-14 14:50:00,36.0,29.0,30.39,NE,56,10.0,15.0,76,0.00,,,0.11,weatherlink.com 1.10,2013-10-14 20:50:00,
2013-10-14 15:05:00,34.6,29.0,30.41,East,97,8.0,15.0,81,0.00,,,0.11,weatherlink.com 1.10,2013-10-14 21:05:00,
2013-10-14 15:20:00,32.8,29.0,30.40,WNW,303,2.0,11.0,87,0.01,,,0.12,weatherlink.com 1.10,2013-10-14 21:20:00,
2013-10-14 15:35:00,34.0,28.0,30.40,WNW,295,4.0,11.0,80,0.01,,,0.12,weatherlink.com 1.10,2013-10-14 21:35:00,
2013-10-14 15:50:00,34.9,30.0,30.41,SW,233,6.0,10.0,81,0.01,,,0.12,weatherlink.com 1.10,2013-10-14 21:50:00,
2013-10-14 16:05:00,35.0,29.0,30.42,SW,224,0.0,5.0,80,0.01,,,0.12,weatherlink.com 1.10,2013-10-14 22:05:00,
2013-10-14 16:20:00,36.0,30.0,30.43,SW,224,2.0,3.0,78,0.00,,,0.12,weatherlink.com 1.10,2013-10-14 22:20:00,
2013-10-14 16:35:00,36.2,29.0,30.44,SW,224,0.0,2.0,76,0.00,,,0.12,weatherlink.com 1.10,2013-10-14 22:35:00,
2013-10-14 16:50:00,36.0,30.0,30.44,ESE,116,4.0,8.0,79,0.00,,,0.12,weatherlink.com 1.10,2013-10-14 22:50:00,
2013-10-14 17:05:00,35.2,30.0,30.45,ESE,108,1.0,8.0,81,0.00,,,0.12,weatherlink.com 1.10,2013-10-14 23:05:00,
2013-10-14 17:20:00,35.2,31.0,30.46,ESE,108,1.0,2.0,83,0.00,,,0.12,weatherlink.com 1.10,2013-10-14 23:20:00,
2013-10-14 17:35:00,34.3,30.0,30.47,SSW,204,3.0,5.0,85,0.00,,,0.12,weatherlink.com 1.10,2013-10-14 23:35:00,
2013-10-14 17:50:00,33.4,30.0,30.48,SSW,204,3.0,5.0,87,0.00,,,0.12,weatherlink.com 1.10,2013-10-14 23:50:00,
2013-10-14 18:05:00,32.9,30.0,30.49,SSW,204,2.0,5.0,89,0.00,,,0.12,weatherlink.com 1.10,2013-10-15 00:05:00,
2013-10-14 18:22:00,32.5,30.0,30.50,West,268,6.0,9.0,90,0.01,,,0.13,weatherlink.com 1.10,2013-10-15 00:22:00,
2013-10-14 18:35:00,32.1,30.0,30.51,WSW,249,7.0,12.0,90,0.01,,,0.13,weatherlink.com 1.10,2013-10-15 00:35:00,
2013-10-14 18:50:00,31.9,29.0,30.52,North,4,3.0,9.0,89,0.01,,,0.13,weatherlink.com 1.10,2013-10-15 00:50:00,
2013-10-14 19:06:00,31.5,29.0,30.54,NW,320,6.0,9.0,90,0.01,,,0.13,weatherlink.com 1.10,2013-10-15 01:06:00,
2013-10-14 19:20:00,31.0,29.0,30.55,NW,321,8.0,8.0,90,0.00,,,0.13,weatherlink.com 1.10,2013-10-15 01:20:00,
2013-10-14 19:36:00,30.9,28.0,30.55,WNW,297,4.0,7.0,90,0.00,,,0.13,weatherlink.com 1.10,2013-10-15 01:36:00,
2013-10-14 19:51:00,30.7,28.0,30.56,NW,320,6.0,8.0,90,0.00,,,0.13,weatherlink.com 1.10,2013-10-15 01:51:00,
2013-10-14 20:06:00,30.6,28.0,30.57,West,262,1.0,8.0,91,0.00,,,0.13,weatherlink.com 1.10,2013-10-15 02:06:00,
2013-10-14 20:21:00,30.4,28.0,30.57,NW,318,1.0,5.0,91,0.00,,,0.13,weatherlink.com 1.10,2013-10-15 02:21:00,
2013-10-14 20:36:00,30.3,28.0,30.58,West,266,5.0,7.0,91,0.00,,,0.13,weatherlink.com 1.10,2013-10-15 02:36:00,
2013-10-14 20:51:00,30.3,28.0,30.59,West,280,0.0,6.0,91,0.00,,,0.13,weatherlink.com 1.10,2013-10-15 02:51:00,
2013-10-14 21:06:00,30.0,28.0,30.59,NW,308,4.0,6.0,90,0.00,,,0.13,weatherlink.com 1.10,2013-10-15 03:06:00,
2013-10-14 21:21:00,30.0,28.0,30.59,West,274,5.0,7.0,91,0.00,,,0.13,weatherlink.com 1.10,2013-10-15 03:21:00,
2013-10-14 21:36:00,30.1,28.0,30.59,WSW,244,3.0,5.0,90,0.00,,,0.13,weatherlink.com 1.10,2013-10-15 03:36:00,
2013-10-14 21:51:00,30.0,28.0,30.60,NW,314,2.0,4.0,90,0.00,,,0.13,weatherlink.com 1.10,2013-10-15 03:51:00,
2013-10-14 22:06:00,30.0,28.0,30.60,NW,314,0.0,2.0,90,0.00,,,0.13,weatherlink.com 1.10,2013-10-15 04:06:00,
2013-10-14 22:21:00,30.0,28.0,30.61,NW,314,0.0,1.0,90,0.00,,,0.13,weatherlink.com 1.10,2013-10-15 04:21:00,
2013-10-14 22:36:00,29.8,27.0,30.61,NW,314,0.0,0.0,90,0.00,,,0.13,weatherlink.com 1.10,2013-10-15 04:36:00,
2013-10-14 22:51:00,29.8,27.0,30.61,NW,314,0.0,2.0,90,0.00,,,0.13,weatherlink.com 1.10,2013-10-15 04:51:00,
2013-10-14 23:06:00,29.7,27.0,30.61,NW,314,0.0,0.0,90,0.00,,,0.13,weatherlink.com 1.10,2013-10-15 05:06:00,
2013-10-14 23:21:00,29.7,27.0,30.61,NW,314,0.0,0.0,90,0.00,,,0.13,weatherlink.com 1.10,2013-10-15 05:21:00,
2013-10-14 23:36:00,29.5,27.0,30.61,NW,314,0.0,2.0,90,0.00,,,0.13,weatherlink.com 1.10,2013-10-15 05:36:00,
2013-10-14 23:51:00,29.4,27.0,30.61,NW,314,0.0,2.0,90,0.00,,,0.13,weatherlink.com 1.10,2013-10-15 05:51:00,